Year,Month,Day,Hour,Minute,Value (Times are PST for barometer in hPa)
2020,07,20,00,01,1014.20
2020,07,20,00,02,1014.20
2020,07,20,00,03,1014.20
2020,07,20,00,04,1014.20
2020,07,20,00,06,1014.20
2020,07,20,00,07,1014.20
2020,07,20,00,09,1014.20
2020,07,20,00,11,1014.20
2020,07,20,00,12,1014.20
2020,07,20,00,13,1014.20
2020,07,20,00,14,1014.20
2020,07,20,00,16,1014.20
2020,07,20,00,17,1014.20
2020,07,20,00,18,1014.20
2020,07,20,00,19,1014.20
2020,07,20,00,21,1014.20
2020,07,20,00,22,1014.20
2020,07,20,00,23,1014.20
2020,07,20,00,24,1014.20
2020,07,20,00,26,1014.20
2020,07,20,00,27,1014.20
2020,07,20,00,28,1014.20
2020,07,20,00,29,1014.20
2020,07,20,00,30,1014.20
2020,07,20,00,32,1014.20
2020,07,20,00,33,1014.20
2020,07,20,00,34,1014.20
2020,07,20,00,36,1014.30
2020,07,20,00,37,1014.30
2020,07,20,00,38,1014.30
2020,07,20,00,39,1014.30
2020,07,20,00,40,1014.30
2020,07,20,00,41,1014.30
2020,07,20,00,42,1014.30
2020,07,20,00,43,1014.30
2020,07,20,00,44,1014.30
2020,07,20,00,45,1014.30
2020,07,20,00,46,1014.30
2020,07,20,00,47,1014.30
2020,07,20,00,48,1014.30
2020,07,20,00,49,1014.30
2020,07,20,00,50,1014.30
2020,07,20,00,51,1014.30
2020,07,20,00,52,1014.30
2020,07,20,00,53,1014.30
2020,07,20,00,54,1014.30
2020,07,20,00,55,1014.30
2020,07,20,00,56,1014.30
2020,07,20,00,57,1014.30
2020,07,20,00,58,1014.30
2020,07,20,00,59,1014.30
2020,07,20,01,00,1014.30
2020,07,20,01,01,1014.30
2020,07,20,01,02,1014.30
2020,07,20,01,03,1014.30
2020,07,20,01,04,1014.30
2020,07,20,01,05,1014.30
2020,07,20,01,06,1014.30
2020,07,20,01,07,1014.30
2020,07,20,01,08,1014.30
2020,07,20,01,09,1014.30
2020,07,20,01,10,1014.30
2020,07,20,01,11,1014.30
2020,07,20,01,12,1014.30
2020,07,20,01,13,1014.30
2020,07,20,01,14,1014.30
2020,07,20,01,15,1014.30
2020,07,20,01,16,1014.30
2020,07,20,01,17,1014.30
2020,07,20,01,18,1014.30
2020,07,20,01,19,1014.30
2020,07,20,01,20,1014.30
2020,07,20,01,21,1014.30
2020,07,20,01,22,1014.30
2020,07,20,01,23,1014.30
2020,07,20,01,24,1014.40
2020,07,20,01,25,1014.30
2020,07,20,01,26,1014.30
2020,07,20,01,27,1014.40
2020,07,20,01,28,1014.40
2020,07,20,01,29,1014.30
2020,07,20,01,30,1014.30
2020,07,20,01,31,1014.40
2020,07,20,01,32,1014.30
2020,07,20,01,33,1014.40
2020,07,20,01,34,1014.40
2020,07,20,01,35,1014.30
2020,07,20,01,36,1014.30
2020,07,20,01,37,1014.30
2020,07,20,01,38,1014.30
2020,07,20,01,39,1014.30
2020,07,20,01,40,1014.30
2020,07,20,01,41,1014.30
2020,07,20,01,42,1014.30
2020,07,20,01,43,1014.30
2020,07,20,01,44,1014.40
2020,07,20,01,45,1014.40
2020,07,20,01,46,1014.40
2020,07,20,01,47,1014.40
2020,07,20,01,48,1014.30
2020,07,20,01,49,1014.40
2020,07,20,01,50,1014.40
2020,07,20,01,51,1014.40
2020,07,20,01,52,1014.40
2020,07,20,01,53,1014.40
2020,07,20,01,54,1014.40
2020,07,20,01,55,1014.40
2020,07,20,01,56,1014.40
2020,07,20,01,57,1014.40
2020,07,20,01,58,1014.40
2020,07,20,01,59,1014.40
2020,07,20,02,00,1014.40
2020,07,20,02,01,1014.40
2020,07,20,02,02,1014.40
2020,07,20,02,03,1014.40
2020,07,20,02,04,1014.30
2020,07,20,02,05,1014.30
2020,07,20,02,06,1014.30
2020,07,20,02,07,1014.30
2020,07,20,02,08,1014.30
2020,07,20,02,09,1014.40
2020,07,20,02,10,1014.30
2020,07,20,02,11,1014.30
2020,07,20,02,12,1014.30
2020,07,20,02,13,1014.30
2020,07,20,02,14,1014.30
2020,07,20,02,15,1014.30
2020,07,20,02,16,1014.30
2020,07,20,02,17,1014.40
2020,07,20,02,18,1014.40
2020,07,20,02,19,1014.30
2020,07,20,02,20,1014.40
2020,07,20,02,21,1014.30
2020,07,20,02,22,1014.30
2020,07,20,02,23,1014.30
2020,07,20,02,24,1014.30
2020,07,20,02,25,1014.30
2020,07,20,02,26,1014.30
2020,07,20,02,27,1014.30
2020,07,20,02,28,1014.30
2020,07,20,02,29,1014.30
2020,07,20,02,30,1014.30
2020,07,20,02,31,1014.30
2020,07,20,02,32,1014.30
2020,07,20,02,33,1014.30
2020,07,20,02,34,1014.30
2020,07,20,02,36,1014.30
2020,07,20,02,37,1014.30
2020,07,20,02,38,1014.40
2020,07,20,02,39,1014.30
2020,07,20,02,41,1014.30
2020,07,20,02,42,1014.40
2020,07,20,02,43,1014.40
2020,07,20,02,44,1014.40
2020,07,20,02,46,1014.40
2020,07,20,02,47,1014.40
2020,07,20,02,48,1014.40
2020,07,20,02,49,1014.40
2020,07,20,02,51,1014.40
2020,07,20,02,52,1014.40
2020,07,20,02,53,1014.50
2020,07,20,02,54,1014.50
2020,07,20,02,56,1014.40
2020,07,20,02,57,1014.40
2020,07,20,02,58,1014.50
2020,07,20,02,59,1014.40
2020,07,20,03,01,1014.50
2020,07,20,03,02,1014.50
2020,07,20,03,03,1014.50
2020,07,20,03,04,1014.60
2020,07,20,03,06,1014.70
2020,07,20,03,07,1014.70
2020,07,20,03,08,1014.70
2020,07,20,03,09,1014.70
2020,07,20,03,11,1014.70
2020,07,20,03,12,1014.70
2020,07,20,03,13,1014.70
2020,07,20,03,14,1014.70
2020,07,20,03,16,1014.70
2020,07,20,03,17,1014.70
2020,07,20,03,18,1014.70
2020,07,20,03,19,1014.70
2020,07,20,03,21,1014.70
2020,07,20,03,22,1014.60
2020,07,20,03,23,1014.60
2020,07,20,03,24,1014.60
2020,07,20,03,26,1014.60
2020,07,20,03,27,1014.60
2020,07,20,03,28,1014.70
2020,07,20,03,29,1014.70
2020,07,20,03,31,1014.70
2020,07,20,03,32,1014.70
2020,07,20,03,33,1014.70
2020,07,20,03,34,1014.70
2020,07,20,03,36,1014.70
2020,07,20,03,37,1014.70
2020,07,20,03,38,1014.70
2020,07,20,03,39,1014.70
2020,07,20,03,41,1014.80
2020,07,20,03,42,1014.80
2020,07,20,03,43,1014.80
2020,07,20,03,44,1014.80
2020,07,20,03,46,1014.80
2020,07,20,03,47,1014.80
2020,07,20,03,48,1014.80
2020,07,20,03,49,1014.80
2020,07,20,03,51,1014.80
2020,07,20,03,52,1014.80
2020,07,20,03,53,1014.80
2020,07,20,03,54,1014.80
2020,07,20,03,56,1014.80
2020,07,20,03,57,1014.80
2020,07,20,03,58,1014.80
2020,07,20,03,59,1014.80
2020,07,20,04,00,1014.80
2020,07,20,04,01,1014.80
2020,07,20,04,02,1014.80
2020,07,20,04,03,1014.80
2020,07,20,04,04,1014.80
2020,07,20,04,06,1014.80
2020,07,20,04,07,1014.80
2020,07,20,04,08,1014.80
2020,07,20,04,29,1014.80
2020,07,20,04,30,1014.80
2020,07,20,04,31,1014.80
2020,07,20,04,32,1014.80
2020,07,20,04,33,1014.80
2020,07,20,04,34,1014.80
2020,07,20,04,35,1014.80
2020,07,20,04,36,1014.80
2020,07,20,04,37,1014.80
2020,07,20,04,38,1014.80
2020,07,20,04,39,1014.80
2020,07,20,04,40,1014.80
2020,07,20,04,41,1014.80
2020,07,20,04,42,1014.80
2020,07,20,04,43,1014.80
2020,07,20,04,44,1014.80
2020,07,20,04,45,1014.80
2020,07,20,04,46,1014.80
2020,07,20,04,47,1014.80
2020,07,20,04,48,1014.80
2020,07,20,04,49,1014.80
2020,07,20,04,50,1014.80
2020,07,20,04,51,1014.80
2020,07,20,04,52,1014.80
2020,07,20,04,53,1014.80
2020,07,20,04,54,1014.80
2020,07,20,04,55,1014.80
2020,07,20,04,56,1014.80
2020,07,20,04,57,1014.80
2020,07,20,04,58,1014.80
2020,07,20,04,59,1014.80
2020,07,20,05,00,1014.80
2020,07,20,05,01,1014.80
2020,07,20,05,02,1014.80
2020,07,20,05,03,1014.80
2020,07,20,05,04,1014.80
2020,07,20,05,06,1014.80
2020,07,20,05,07,1014.80
2020,07,20,05,08,1014.80
2020,07,20,05,09,1014.80
2020,07,20,05,11,1014.80
2020,07,20,05,12,1014.80
2020,07,20,05,13,1014.80
2020,07,20,05,14,1014.80
2020,07,20,05,16,1014.80
2020,07,20,05,17,1014.80
2020,07,20,05,18,1014.80
2020,07,20,05,19,1014.80
2020,07,20,05,21,1014.80
2020,07,20,05,22,1014.80
2020,07,20,05,23,1014.80
2020,07,20,05,24,1014.80
2020,07,20,05,26,1014.80
2020,07,20,05,27,1014.80
2020,07,20,05,28,1014.80
2020,07,20,05,29,1014.80
2020,07,20,05,31,1014.80
2020,07,20,05,32,1014.80
2020,07,20,05,33,1014.80
2020,07,20,05,34,1014.80
2020,07,20,05,36,1014.80
2020,07,20,05,37,1014.80
2020,07,20,05,38,1014.80
2020,07,20,05,39,1014.80
2020,07,20,05,41,1014.80
2020,07,20,05,42,1014.80
2020,07,20,05,43,1014.80
2020,07,20,05,44,1014.80
2020,07,20,05,46,1014.80
2020,07,20,05,47,1014.80
2020,07,20,05,48,1014.80
2020,07,20,05,49,1014.80
2020,07,20,05,51,1014.80
2020,07,20,05,52,1014.80
2020,07,20,05,53,1014.80
2020,07,20,05,54,1014.80
2020,07,20,05,56,1014.80
2020,07,20,05,57,1014.80
2020,07,20,05,58,1014.80
2020,07,20,05,59,1014.80
2020,07,20,06,01,1014.80
2020,07,20,06,02,1014.80
2020,07,20,06,03,1014.80
2020,07,20,06,04,1014.80
2020,07,20,06,06,1014.90
2020,07,20,06,07,1014.80
2020,07,20,06,08,1014.80
2020,07,20,06,09,1014.80
2020,07,20,06,11,1014.80
2020,07,20,06,12,1014.80
2020,07,20,06,13,1014.80
2020,07,20,06,14,1014.80
2020,07,20,06,16,1014.80
2020,07,20,06,17,1014.80
2020,07,20,06,18,1014.80
2020,07,20,06,19,1014.80
2020,07,20,06,21,1014.80
2020,07,20,06,22,1014.80
2020,07,20,06,23,1014.80
2020,07,20,06,24,1014.80
2020,07,20,06,26,1014.80
2020,07,20,06,27,1014.80
2020,07,20,06,28,1014.80
2020,07,20,06,29,1014.80
2020,07,20,06,30,1014.80
2020,07,20,06,32,1014.80
2020,07,20,06,33,1014.80
2020,07,20,06,34,1014.80
2020,07,20,06,36,1014.80
2020,07,20,06,37,1014.80
2020,07,20,06,38,1014.80
2020,07,20,06,39,1014.80
2020,07,20,06,40,1014.80
2020,07,20,06,41,1014.80
2020,07,20,06,42,1014.80
2020,07,20,06,43,1014.80
2020,07,20,06,44,1014.80
2020,07,20,06,45,1014.80
2020,07,20,06,46,1014.80
2020,07,20,06,47,1014.80
2020,07,20,06,48,1014.80
2020,07,20,06,49,1014.80
2020,07,20,06,50,1014.90
2020,07,20,06,51,1014.90
2020,07,20,06,52,1014.90
2020,07,20,06,53,1014.90
2020,07,20,06,54,1014.90
2020,07,20,06,55,1015.00
2020,07,20,06,56,1015.00
2020,07,20,06,57,1015.00
2020,07,20,06,58,1015.00
2020,07,20,06,59,1015.00
2020,07,20,07,00,1015.00
2020,07,20,07,01,1015.00
2020,07,20,07,02,1015.00
2020,07,20,07,03,1015.00
2020,07,20,07,04,1015.00
2020,07,20,07,05,1015.00
2020,07,20,07,06,1015.00
2020,07,20,07,07,1015.10
2020,07,20,07,08,1015.10
2020,07,20,07,09,1015.10
2020,07,20,07,10,1015.10
2020,07,20,07,11,1015.10
2020,07,20,07,12,1015.10
2020,07,20,07,13,1015.10
2020,07,20,07,14,1015.10
2020,07,20,07,15,1015.10
2020,07,20,07,16,1015.00
2020,07,20,07,17,1015.10
2020,07,20,07,18,1015.10
2020,07,20,07,19,1015.10
2020,07,20,07,20,1015.10
2020,07,20,07,21,1015.10
2020,07,20,07,22,1015.10
2020,07,20,07,23,1015.10
2020,07,20,07,24,1015.10
2020,07,20,07,25,1015.00
2020,07,20,07,26,1015.00
2020,07,20,07,27,1015.00
2020,07,20,07,28,1015.10
2020,07,20,07,29,1015.00
2020,07,20,07,30,1015.10
2020,07,20,07,31,1015.10
2020,07,20,07,32,1015.10
2020,07,20,07,33,1015.20
2020,07,20,07,34,1015.20
2020,07,20,07,35,1015.20
2020,07,20,07,36,1015.20
2020,07,20,07,37,1015.20
2020,07,20,07,38,1015.20
2020,07,20,07,39,1015.20
2020,07,20,07,40,1015.20
2020,07,20,07,41,1015.20
2020,07,20,07,42,1015.20
2020,07,20,07,43,1015.30
2020,07,20,07,44,1015.20
2020,07,20,07,45,1015.20
2020,07,20,07,46,1015.20
2020,07,20,07,47,1015.20
2020,07,20,07,48,1015.20
2020,07,20,07,49,1015.20
2020,07,20,07,50,1015.20
2020,07,20,07,51,1015.20
2020,07,20,07,52,1015.20
2020,07,20,07,53,1015.20
2020,07,20,07,54,1015.20
2020,07,20,07,55,1015.20
2020,07,20,07,56,1015.30
2020,07,20,07,57,1015.30
2020,07,20,07,58,1015.30
2020,07,20,07,59,1015.20
2020,07,20,08,00,1015.30
2020,07,20,08,01,1015.20
2020,07,20,08,02,1015.20
2020,07,20,08,03,1015.20
2020,07,20,08,04,1015.20
2020,07,20,08,05,1015.20
2020,07,20,08,06,1015.20
2020,07,20,08,07,1015.20
2020,07,20,08,08,1015.20
2020,07,20,08,09,1015.20
2020,07,20,08,10,1015.30
2020,07,20,08,11,1015.20
2020,07,20,08,12,1015.20
2020,07,20,08,13,1015.20
2020,07,20,08,14,1015.20
2020,07,20,08,15,1015.20
2020,07,20,08,16,1015.20
2020,07,20,08,17,1015.20
2020,07,20,08,18,1015.20
2020,07,20,08,19,1015.20
2020,07,20,08,20,1015.20
2020,07,20,08,21,1015.20
2020,07,20,08,22,1015.20
2020,07,20,08,23,1015.10
2020,07,20,08,24,1015.10
2020,07,20,08,25,1015.10
2020,07,20,08,26,1015.10
2020,07,20,08,27,1015.10
2020,07,20,08,28,1015.10
2020,07,20,08,29,1015.10
2020,07,20,08,30,1015.10
2020,07,20,08,31,1015.10
2020,07,20,08,32,1015.00
2020,07,20,08,33,1015.10
2020,07,20,08,34,1015.00
2020,07,20,08,35,1015.00
2020,07,20,08,36,1015.00
2020,07,20,08,37,1015.10
2020,07,20,08,38,1015.10
2020,07,20,08,39,1015.10
2020,07,20,08,40,1015.10
2020,07,20,08,41,1015.10
2020,07,20,08,42,1015.10
2020,07,20,08,43,1015.10
2020,07,20,08,44,1015.20
2020,07,20,08,45,1015.20
2020,07,20,08,46,1015.20
2020,07,20,08,48,1015.20
2020,07,20,08,49,1015.20
2020,07,20,08,51,1015.20
2020,07,20,08,52,1015.20
2020,07,20,08,53,1015.20
2020,07,20,08,54,1015.20
2020,07,20,08,56,1015.20
2020,07,20,08,57,1015.20
2020,07,20,08,58,1015.20
2020,07,20,08,59,1015.20
2020,07,20,09,01,1015.20
2020,07,20,09,02,1015.20
2020,07,20,09,03,1015.20
2020,07,20,09,04,1015.20
2020,07,20,09,06,1015.30
2020,07,20,09,07,1015.30
2020,07,20,09,08,1015.30
2020,07,20,09,09,1015.30
2020,07,20,09,11,1015.30
2020,07,20,09,12,1015.30
2020,07,20,09,13,1015.30
2020,07,20,09,14,1015.30
2020,07,20,09,16,1015.30
2020,07,20,09,17,1015.30
2020,07,20,09,18,1015.30
2020,07,20,09,19,1015.30
2020,07,20,09,21,1015.30
2020,07,20,09,22,1015.30
2020,07,20,09,23,1015.30
2020,07,20,09,24,1015.30
2020,07,20,09,26,1015.30
2020,07,20,09,27,1015.30
2020,07,20,09,28,1015.30
2020,07,20,09,29,1015.30
2020,07,20,09,31,1015.30
2020,07,20,09,32,1015.30
2020,07,20,09,33,1015.30
2020,07,20,09,34,1015.30
2020,07,20,09,36,1015.30
2020,07,20,09,37,1015.30
2020,07,20,09,38,1015.30
2020,07,20,09,39,1015.30
2020,07,20,09,41,1015.30
2020,07,20,09,42,1015.30
2020,07,20,09,43,1015.30
2020,07,20,09,44,1015.30
2020,07,20,09,46,1015.30
2020,07,20,09,47,1015.30
2020,07,20,09,48,1015.30
2020,07,20,09,49,1015.30
2020,07,20,09,51,1015.30
2020,07,20,09,52,1015.30
2020,07,20,09,53,1015.20
2020,07,20,09,54,1015.20
2020,07,20,09,56,1015.30
2020,07,20,09,57,1015.30
2020,07,20,09,58,1015.20
2020,07,20,09,59,1015.30
2020,07,20,10,01,1015.20
2020,07,20,10,02,1015.20
2020,07,20,10,03,1015.20
2020,07,20,10,04,1015.20
2020,07,20,10,06,1015.20
2020,07,20,10,07,1015.20
2020,07,20,10,08,1015.20
2020,07,20,10,09,1015.20
2020,07,20,10,11,1015.20
2020,07,20,10,12,1015.20
2020,07,20,10,13,1015.20
2020,07,20,10,14,1015.20
2020,07,20,10,15,1015.20
2020,07,20,10,16,1015.20
2020,07,20,10,17,1015.10
2020,07,20,10,18,1015.20
2020,07,20,10,19,1015.20
2020,07,20,10,20,1015.20
2020,07,20,10,21,1015.20
2020,07,20,10,22,1015.10
2020,07,20,10,23,1015.10
2020,07,20,10,24,1015.10
2020,07,20,10,25,1015.20
2020,07,20,10,26,1015.20
2020,07,20,10,27,1015.20
2020,07,20,10,28,1015.20
2020,07,20,10,29,1015.20
2020,07,20,10,30,1015.10
2020,07,20,10,31,1015.10
2020,07,20,10,32,1015.10
2020,07,20,10,33,1015.10
2020,07,20,10,34,1015.00
2020,07,20,10,35,1015.10
2020,07,20,10,36,1015.10
2020,07,20,10,37,1015.00
2020,07,20,10,38,1015.00
2020,07,20,10,39,1015.00
2020,07,20,10,40,1014.90
2020,07,20,10,41,1014.90
2020,07,20,10,42,1014.90
2020,07,20,10,43,1014.90
2020,07,20,10,44,1014.90
2020,07,20,10,45,1014.90
2020,07,20,10,46,1014.90
2020,07,20,10,47,1014.90
2020,07,20,10,48,1015.00
2020,07,20,10,49,1015.00
2020,07,20,10,50,1014.90
2020,07,20,10,51,1014.90
2020,07,20,10,52,1014.90
2020,07,20,10,53,1014.90
2020,07,20,10,54,1014.90
2020,07,20,10,55,1014.80
2020,07,20,10,56,1014.80
2020,07,20,10,57,1014.80
2020,07,20,10,58,1014.80
2020,07,20,10,59,1014.80
2020,07,20,11,00,1014.80
2020,07,20,11,01,1014.80
2020,07,20,11,02,1014.80
2020,07,20,11,03,1014.80
2020,07,20,11,04,1014.80
2020,07,20,11,05,1014.80
2020,07,20,11,06,1014.80
2020,07,20,11,07,1014.80
2020,07,20,11,08,1014.80
2020,07,20,11,09,1014.80
2020,07,20,11,10,1014.80
2020,07,20,11,11,1014.80
2020,07,20,11,12,1014.80
2020,07,20,11,13,1014.80
2020,07,20,11,14,1014.80
2020,07,20,11,15,1014.80
2020,07,20,11,16,1014.80
2020,07,20,11,17,1014.80
2020,07,20,11,18,1014.80
2020,07,20,11,19,1014.80
2020,07,20,11,20,1014.80
2020,07,20,11,21,1014.80
2020,07,20,11,22,1014.80
2020,07,20,11,23,1014.80
2020,07,20,11,24,1014.80
2020,07,20,11,25,1014.70
2020,07,20,11,26,1014.70
2020,07,20,11,27,1014.70
2020,07,20,11,28,1014.70
2020,07,20,11,29,1014.70
2020,07,20,11,30,1014.70
2020,07,20,11,31,1014.70
2020,07,20,11,32,1014.70
2020,07,20,11,33,1014.60
2020,07,20,11,34,1014.60
2020,07,20,11,35,1014.60
2020,07,20,11,36,1014.50
2020,07,20,11,37,1014.50
2020,07,20,11,38,1014.40
2020,07,20,11,39,1014.40
2020,07,20,11,40,1014.40
2020,07,20,11,41,1014.50
2020,07,20,11,42,1014.50
2020,07,20,11,43,1014.50
2020,07,20,11,44,1014.50
2020,07,20,11,45,1014.50
2020,07,20,11,46,1014.50
2020,07,20,11,47,1014.40
2020,07,20,11,48,1014.40
2020,07,20,11,49,1014.40
2020,07,20,11,50,1014.40
2020,07,20,11,51,1014.40
2020,07,20,11,52,1014.40
2020,07,20,11,53,1014.40
2020,07,20,11,54,1014.40
2020,07,20,11,55,1014.40
2020,07,20,11,56,1014.40
2020,07,20,11,57,1014.40
2020,07,20,11,58,1014.40
2020,07,20,11,59,1014.40
2020,07,20,12,00,1014.30
2020,07,20,12,01,1014.30
2020,07,20,12,02,1014.40
2020,07,20,12,03,1014.30
2020,07,20,12,04,1014.30
2020,07,20,12,05,1014.30
2020,07,20,12,06,1014.30
2020,07,20,12,07,1014.30
2020,07,20,12,08,1014.30
2020,07,20,12,09,1014.30
2020,07,20,12,10,1014.30
2020,07,20,12,11,1014.30
2020,07,20,12,12,1014.30
2020,07,20,12,13,1014.30
2020,07,20,12,14,1014.30
2020,07,20,12,15,1014.30
2020,07,20,12,16,1014.30
2020,07,20,12,17,1014.30
2020,07,20,12,18,1014.30
2020,07,20,12,19,1014.30
2020,07,20,12,20,1014.30
2020,07,20,12,21,1014.20
2020,07,20,12,22,1014.20
2020,07,20,12,23,1014.20
2020,07,20,12,24,1014.20
2020,07,20,12,25,1014.20
2020,07,20,12,27,1014.20
2020,07,20,12,28,1014.20
2020,07,20,12,29,1014.20
2020,07,20,12,30,1014.20
2020,07,20,12,32,1014.20
2020,07,20,12,33,1014.20
2020,07,20,12,34,1014.20
2020,07,20,12,36,1014.20
2020,07,20,12,37,1014.20
2020,07,20,12,38,1014.20
2020,07,20,12,39,1014.20
2020,07,20,12,41,1014.20
2020,07,20,12,42,1014.20
2020,07,20,12,43,1014.20
2020,07,20,12,44,1014.20
2020,07,20,12,46,1014.20
2020,07,20,12,47,1014.20
2020,07,20,12,48,1014.20
2020,07,20,12,49,1014.10
2020,07,20,12,51,1014.10
2020,07,20,12,52,1014.10
2020,07,20,12,53,1014.10
2020,07,20,12,54,1014.10
2020,07,20,12,56,1014.10
2020,07,20,12,57,1014.10
2020,07,20,12,58,1014.00
2020,07,20,12,59,1014.00
2020,07,20,13,01,1014.00
2020,07,20,13,02,1013.90
2020,07,20,13,03,1013.90
2020,07,20,13,04,1013.90
2020,07,20,13,06,1013.90
2020,07,20,13,07,1013.90
2020,07,20,13,08,1013.80
2020,07,20,13,09,1013.80
2020,07,20,13,11,1013.80
2020,07,20,13,12,1013.80
2020,07,20,13,13,1013.80
2020,07,20,13,14,1013.80
2020,07,20,13,16,1013.80
2020,07,20,13,17,1013.80
2020,07,20,13,18,1013.80
2020,07,20,13,19,1013.80
2020,07,20,13,21,1013.70
2020,07,20,13,22,1013.70
2020,07,20,13,23,1013.70
2020,07,20,13,24,1013.70
2020,07,20,13,26,1013.70
2020,07,20,13,27,1013.70
2020,07,20,13,28,1013.70
2020,07,20,13,29,1013.70
2020,07,20,13,31,1013.70
2020,07,20,13,32,1013.70
2020,07,20,13,33,1013.70
2020,07,20,13,34,1013.70
2020,07,20,13,36,1013.70
2020,07,20,13,37,1013.70
2020,07,20,13,38,1013.70
2020,07,20,13,39,1013.70
2020,07,20,13,41,1013.70
2020,07,20,13,42,1013.70
2020,07,20,13,43,1013.70
2020,07,20,13,44,1013.60
2020,07,20,13,46,1013.60
2020,07,20,13,47,1013.60
2020,07,20,13,48,1013.50
2020,07,20,13,49,1013.50
2020,07,20,13,50,1013.50
2020,07,20,13,51,1013.50
2020,07,20,13,52,1013.50
2020,07,20,13,53,1013.50
2020,07,20,13,54,1013.50
2020,07,20,13,55,1013.50
2020,07,20,13,56,1013.50
2020,07,20,13,57,1013.40
2020,07,20,13,58,1013.40
2020,07,20,13,59,1013.40
2020,07,20,14,00,1013.40
2020,07,20,14,01,1013.40
2020,07,20,14,02,1013.40
2020,07,20,14,03,1013.40
2020,07,20,14,04,1013.40
2020,07,20,14,06,1013.30
2020,07,20,14,07,1013.30
2020,07,20,14,08,1013.30
2020,07,20,14,09,1013.30
2020,07,20,14,10,1013.30
2020,07,20,14,11,1013.30
2020,07,20,14,12,1013.30
2020,07,20,14,13,1013.30
2020,07,20,14,14,1013.20
2020,07,20,14,15,1013.20
2020,07,20,14,16,1013.20
2020,07,20,14,17,1013.20
2020,07,20,14,18,1013.20
2020,07,20,14,19,1013.20
2020,07,20,14,20,1013.20
2020,07,20,14,21,1013.20
2020,07,20,14,22,1013.20
2020,07,20,14,23,1013.20
2020,07,20,14,24,1013.20
2020,07,20,14,25,1013.20
2020,07,20,14,26,1013.20
2020,07,20,14,27,1013.20
2020,07,20,14,28,1013.20
2020,07,20,14,29,1013.20
2020,07,20,14,30,1013.20
2020,07,20,14,31,1013.20
2020,07,20,14,32,1013.20
2020,07,20,14,33,1013.10
2020,07,20,14,34,1013.10
2020,07,20,14,35,1013.10
2020,07,20,14,36,1013.10
2020,07,20,14,37,1013.10
2020,07,20,14,38,1013.10
2020,07,20,14,39,1013.10
2020,07,20,14,40,1013.10
2020,07,20,14,41,1013.10
2020,07,20,14,42,1013.10
2020,07,20,14,43,1013.10
2020,07,20,14,44,1013.10
2020,07,20,14,45,1013.10
2020,07,20,14,46,1013.10
2020,07,20,14,47,1013.00
2020,07,20,14,48,1013.00
2020,07,20,14,49,1013.00
2020,07,20,14,50,1013.00
2020,07,20,14,51,1012.90
2020,07,20,14,52,1013.00
2020,07,20,14,53,1012.90
2020,07,20,14,54,1012.90
2020,07,20,14,55,1012.90
2020,07,20,14,56,1012.90
2020,07,20,14,57,1012.80
2020,07,20,14,58,1012.80
2020,07,20,14,59,1012.80
2020,07,20,15,00,1012.80
2020,07,20,15,01,1012.80
2020,07,20,15,02,1012.80
2020,07,20,15,03,1012.80
2020,07,20,15,04,1012.80
2020,07,20,15,05,1012.80
2020,07,20,15,06,1012.80
2020,07,20,15,07,1012.70
2020,07,20,15,08,1012.70
2020,07,20,15,09,1012.70
2020,07,20,15,10,1012.70
2020,07,20,15,11,1012.70
2020,07,20,15,12,1012.70
2020,07,20,15,13,1012.70
2020,07,20,15,14,1012.70
2020,07,20,15,15,1012.70
2020,07,20,15,16,1012.70
2020,07,20,15,17,1012.70
2020,07,20,15,18,1012.70
2020,07,20,15,19,1012.70
2020,07,20,15,20,1012.70
2020,07,20,15,21,1012.70
2020,07,20,15,22,1012.70
2020,07,20,15,23,1012.70
2020,07,20,15,24,1012.70
2020,07,20,15,25,1012.70
2020,07,20,15,26,1012.70
2020,07,20,15,27,1012.70
2020,07,20,15,28,1012.70
2020,07,20,15,29,1012.70
2020,07,20,15,30,1012.70
2020,07,20,15,31,1012.70
2020,07,20,15,32,1012.60
2020,07,20,15,33,1012.60
2020,07,20,15,34,1012.60
2020,07,20,15,35,1012.60
2020,07,20,15,36,1012.50
2020,07,20,15,37,1012.50
2020,07,20,15,38,1012.60
2020,07,20,15,39,1012.60
2020,07,20,15,40,1012.50
2020,07,20,15,41,1012.50
2020,07,20,15,42,1012.50
2020,07,20,15,43,1012.50
2020,07,20,15,44,1012.50
2020,07,20,15,45,1012.50
2020,07,20,15,46,1012.50
2020,07,20,15,47,1012.50
2020,07,20,15,48,1012.50
2020,07,20,15,49,1012.40
2020,07,20,15,50,1012.40
2020,07,20,15,51,1012.40
2020,07,20,15,52,1012.40
2020,07,20,15,53,1012.40
2020,07,20,15,54,1012.40
2020,07,20,15,55,1012.40
2020,07,20,15,56,1012.40
2020,07,20,15,57,1012.40
2020,07,20,15,58,1012.40
2020,07,20,15,59,1012.40
2020,07,20,16,00,1012.30
2020,07,20,16,01,1012.30
2020,07,20,16,02,1012.30
2020,07,20,16,03,1012.30
2020,07,20,16,04,1012.20
2020,07,20,16,05,1012.20
2020,07,20,16,07,1012.20
2020,07,20,16,09,1012.20
2020,07,20,16,11,1012.20
2020,07,20,16,12,1012.20
2020,07,20,16,13,1012.10
2020,07,20,16,14,1012.10
2020,07,20,16,16,1012.10
2020,07,20,16,17,1012.10
2020,07,20,16,18,1012.10
2020,07,20,16,19,1012.10
2020,07,20,16,21,1012.10
2020,07,20,16,22,1012.10
2020,07,20,16,23,1012.10
2020,07,20,16,24,1012.00
2020,07,20,16,26,1012.00
2020,07,20,16,27,1012.00
2020,07,20,16,28,1012.00
2020,07,20,16,29,1012.00
2020,07,20,16,31,1012.00
2020,07,20,16,32,1012.00
2020,07,20,16,33,1011.90
2020,07,20,16,34,1011.90
2020,07,20,16,36,1011.90
2020,07,20,16,37,1011.80
2020,07,20,16,38,1011.80
2020,07,20,16,39,1011.80
2020,07,20,16,41,1011.80
2020,07,20,16,42,1011.80
2020,07,20,16,43,1011.70
2020,07,20,16,44,1011.70
2020,07,20,16,46,1011.70
2020,07,20,16,47,1011.70
2020,07,20,16,48,1011.70
2020,07,20,16,49,1011.70
2020,07,20,16,51,1011.70
2020,07,20,16,52,1011.70
2020,07,20,16,53,1011.70
2020,07,20,16,54,1011.60
2020,07,20,16,56,1011.60
2020,07,20,16,57,1011.60
2020,07,20,16,58,1011.60
2020,07,20,16,59,1011.60
2020,07,20,17,01,1011.60
2020,07,20,17,02,1011.60
2020,07,20,17,03,1011.60
2020,07,20,17,04,1011.60
2020,07,20,17,06,1011.60
2020,07,20,17,07,1011.60
2020,07,20,17,08,1011.60
2020,07,20,17,09,1011.50
2020,07,20,17,11,1011.50
2020,07,20,17,12,1011.50
2020,07,20,17,13,1011.40
2020,07,20,17,14,1011.40
2020,07,20,17,16,1011.50
2020,07,20,17,17,1011.50
2020,07,20,17,18,1011.40
2020,07,20,17,19,1011.40
2020,07,20,17,21,1011.40
2020,07,20,17,22,1011.40
2020,07,20,17,23,1011.40
2020,07,20,17,24,1011.30
2020,07,20,17,26,1011.30
2020,07,20,17,27,1011.30
2020,07,20,17,28,1011.30
2020,07,20,17,29,1011.20
2020,07,20,17,30,1011.20
2020,07,20,17,31,1011.20
2020,07,20,17,32,1011.20
2020,07,20,17,33,1011.20
2020,07,20,17,34,1011.20
2020,07,20,17,36,1011.20
2020,07,20,17,37,1011.10
2020,07,20,17,38,1011.10
2020,07,20,17,39,1011.10
2020,07,20,17,40,1011.10
2020,07,20,17,41,1011.10
2020,07,20,17,42,1011.10
2020,07,20,17,43,1011.10
2020,07,20,17,44,1011.10
2020,07,20,17,45,1011.10
2020,07,20,17,46,1011.10
2020,07,20,17,47,1011.10
2020,07,20,17,48,1011.10
2020,07,20,17,49,1011.10
2020,07,20,17,50,1011.10
2020,07,20,17,51,1011.10
2020,07,20,17,52,1011.10
2020,07,20,17,53,1011.00
2020,07,20,17,54,1011.00
2020,07,20,17,55,1011.00
2020,07,20,17,56,1011.00
2020,07,20,17,57,1011.00